Location: Isle of Man Observatory
(54.1776°N, 4.6264°W)
Time: 15:32:34
(UTC+02:00)

ARIANE 6 FM1 Upper Stage - Pass Details

Date: 20 April 2026
Orbit: 526 x 601 km, 62.0° (Epoch: 19 May)

Event Time Altitude Azimuth Distance (km) Brightness Sun altitude
Rises 23:31:16 0° 295° (WNW) 2,698 7.4 -15.3°
Reaches altitude 10° 23:33:45 10° 307° (NW) 1,796 6.5 -15.5°
Maximum altitude 23:37:14 27° 7° (N) 1,036 4.5 -15.9°
Drops below altitude 10° 23:40:41 10° 68° (ENE) 1,778 5.0 -16.2°
Enters shadow 23:41:30 - 73° (ENE) 2,064 5.3 -16.3°
